Current Version              Previous Version:    01  02  03  04  05  06  07  08  09  10  11  12  13  14  15  16  17  18  19  20  21  22  23  24  25  26  27  28  29  30  
   31  32  33  34  35  36  37  38  39  40  41  42  43  44  45  46  47  48  49  50  51  52  53  54  55  56  57  58  59  60  

[Printable]
379
ASUS44 KEWX 252310
RWRTX
SOUTH TEXAS REGIONAL WEATHER ROUNDUP
NATIONAL WEATHER SERVICE AUSTIN/SAN ANTONIO TX
600 PM CDT SAT OCT 25 2014

NOTE: "FAIR" INDICATED FEW OR NO CLOUDS BELOW 12,000 FEET WITH NO
SIGNIFICANT WEATHER AND/OR OBSTRUCTIONS TO VISIBILITY.

* - THESE STATIONS ARE NOT NWS OR FAA STATIONS...AND ARE NOT SUBJECT
    TO NWS AND FAA QUALITY CONTROL.

TXZ171-172-183>190-260000-
TEXAS HILL COUNTRY AND EDWARDS PLATEAU

CITY           SKY/WX    TMP DP  RH WIND       PRES   REMARKS
JUNCTION       SUNNY     86  51  29 S8        30.09F
*LLANO         NOT AVBL
BURNET         CLEAR     84  55  36 S5        30.11F
*HORSESHOE BAY CLEAR     85  54  34 S3        30.09S
*KERRVILLE     SUNNY     83  54  37 SE8       30.12S
*FREDERICKSBRG SUNNY     82  53  37 S3        30.11S
*ROCKSPRINGS   SUNNY     82  52  34 S8        30.15F
*BOERNE STAGE  SUNNY     86  50  28 S5        30.12S
*CASTROVILLE   SUNNY     87  49  26 SE5       30.09S
HONDO          SUNNY     83  53  35 SE6       30.09F
*UVALDE        SUNNY     88  56  33 SE7       30.08S
DEL RIO        SUNNY     86  59  39 SE10      30.05F
LAUGHLIN AFB   SUNNY     86  61  42 S12       30.06F
CARRIZO SPRGS  SUNNY     88  54  31 S3        30.04F
$$

TXZ173-191>194-202-209-217>225-228-260000-
CENTRAL AND SOUTH CENTRAL TEXAS

CITY           SKY/WX    TMP DP  RH WIND       PRES   REMARKS
GEORGETOWN     CLEAR     84  57  39 VRB6      30.08
AUSTIN/BERGSTM CLEAR     86  57  37 SE7       30.07S
AUSTIN/MABRY   CLEAR     84  58  40 CALM      30.08F
*AUSTIN/EXEC   CLEAR     84  57  39 S3        30.08F
*LAGO VISTA    CLEAR     84  56  37 SE3       30.10F
SAN MARCOS     CLEAR     88  54  31 SE6       30.08S
NEW BRAUNFELS  CLEAR     87  54  32 S6        30.07S
RANDOLPH AFB   SUNNY     86  53  32 S6        30.09S
PT SAN ANTONIO SUNNY     86  55  34 SE8       30.07F
SAN ANTONIO    SUNNY     86  54  33 CALM      30.08F
STINSON FIELD  SUNNY     87  55  33 SE6       30.06F
*PLEASANTON    SUNNY     87  54  32 E6        30.08S
*LA GRANGE     CLEAR     86  63  46 CALM      30.06F
*GIDDINGS      CLEAR     83  58  42 CALM      30.12S
*GONZALES      CLEAR    N/A N/A N/A CALM      30.07S
$$

TXZ163>164-176>182-195>201-210>213-226-227-235-260000-
SOUTHEAST TEXAS

CITY           SKY/WX    TMP DP  RH WIND       PRES   REMARKS
COLLEGE STN    CLEAR     83  60  45 S5        30.08F
*BRYAN         CLEAR     82  62  49 CALM      30.10S
*CALDWELL      CLEAR     84  57  39 SE3       30.11F
*CROCKETT      CLEAR     84  66  54 CALM      30.11F
*BRENHAM       CLEAR     85  59  40 CALM      30.09F
HUNTSVILLE     CLEAR     84  61  45 CALM      30.08F
CONROE         CLEAR     80  61  52 SE6       30.09F
HOUSTON BUSH   CLEAR     80  58  46 SE5       30.09S
HOUSTON HOBBY  CLEAR     80  55  42 E5        30.09S
*HOUSTON SW AP CLEAR     74  54  48 CALM      30.09F
PEARLAND       CLEAR     82  53  36 SE7       30.10F
HOUSTON HOOKS  CLEAR     83  59  44 CALM      30.09S
ELLINGTON FLD  CLEAR     79  55  44 E3        30.10
SUGAR LAND     CLEAR     81  58  45 SE3       30.08F
*HOUSTON EXEC  CLEAR     82 N/A N/A CALM      30.09F
*CLEVELAND MUN NOT AVBL
*WHARTON       CLEAR     82  57  42 E5        30.09F
*COLUMBUS      FAIR      83  62  48 E3        30.08S
$$

TXZ214>216-236>238-260000-
THE UPPER TEXAS COAST

CITY           SKY/WX    TMP DP  RH WIND       PRES   REMARKS
*ORANGE        CLEAR     77  53  43 S3        30.11S
PORT ARTHUR    CLEAR     77  56  48 E6        30.09F
GALVESTON      CLEAR     75  60  59 SE7       30.11S
ANGLETON       CLEAR     75  61  61 SE7       30.10S
*BAY CITY        N/A     78  62  56 SE7       30.09F
PALACIOS       CLEAR     78  60  53 S9        30.10S
$$

TXZ229>234-239>247-260000-
TEXAS COASTAL BEND AND RIO GRANDE PLAINS

CITY           SKY/WX    TMP DP  RH WIND       PRES   REMARKS
VICTORIA       CLEAR     84  58  40 S10       30.08S
*BEEVILLE      SUNNY     86  57  37 SE8       30.07S
ROCKPORT       CLEAR     78  64  61 SE12      30.09S
*PORT ARANSAS  CLEAR     77  65  65 E6        30.09S
*PORT LAVACA   CLEAR     78  60  53 SE10      30.09F
*INGLESIDE     CLEAR     80  63  55 E9        30.09S
CORPUS CHRISTI SUNNY     80  64  58 E12       30.08F
CORPUS NAS     CLEAR     78  65  63 E10       30.09S
*ROBSTOWN      HVY RAIN  83  64  51 E10       30.08S
ALICE          SUNNY     85  59  41 E12       30.07R
KINGSVILLE NAS SUNNY     82  66  58 E8        30.08R
COTULLA        MOSUNNY   90  51  26 SE9       30.06S
*FAITH RANCH   SUNNY     88  54  31 S8        30.06F
LAREDO         SUNNY     89  57  33 SE6       30.08S
$$

TXZ248>255-260000-
DEEP SOUTH TEXAS

CITY           SKY/WX    TMP DP  RH WIND       PRES   REMARKS
BROWNSVILLE    SUNNY     80  66  62 E9        30.08S
PORT ISABEL    SUNNY     79  65  62 E7        30.08S
*SOUTH PADRE   SUNNY    N/A N/A N/A E6        30.08S
HARLINGEN      SUNNY     80  66  62 E9        30.07S
*HEBBRONVILLE  SUNNY     85  51  30 E8        30.09S
MCALLEN        MOSUNNY   86  62  44 SE8       30.07S
*WESLACO       SUNNY     84  61  46 E8        30.06S
FALFURRIAS     SUNNY     84  60  44 E9        30.07S
EDINBURG       SUNNY     85  63  46 E12       30.07S
*ZAPATA        NOT AVBL
$$

TXZ213>215-236>238-242>244-246-247-251-254-255-260000-
CMAN STATIONS

STATION/POSITION TIME  TEMP    WIND        PRES    WAVE
                       AIR SEA DIR/SP/G            HT/PER
                 (UTC) (F)     (DEG/KT/KT) (MB)    (FT/S)
SABINE PASS      2300   73 72  200/  5/  7 1019.4
SEA RIM ST PARK  2300   72     170/  5/  6 1019.8
NORTH JETTY/GLS  2300   74 75  160/  5/  6   N/A
EAGLE POINT      2300   74 77  160/  7/  8 1019.3
MORGANS POINT    2300   77     160/  4/  8 1019.1
MISSION/ARANSAS  2200          120/  7     1020.0
PORT O`CONNOR    2300          110/  9/ 10   N/A
PORT ARANSAS     2300   76 80   90/ 10/ 11 1020.2
MALAQUITE BEACH  2300   77 80   80/  9/ 10 1018.5
BAFFIN BAY       2300   78 85  100/  8/ 11 1018.9
PORT ISABEL      2300   78 79   50/  6/  9 1018.7
$$

GMZ080-GMZ150>470-260000-
OFFSHORE BUOY REPORTS

STATION/POSITION TIME  TEMP    WIND        PRES    WAVE
                       AIR SEA DIR/SP/G            HT/PER
                 (UTC) (F)     (DEG/KT/KT) (MB)    (FT/S)
20 E GALVESTON   2300   74 78  150/  4/  6 1019.2    1/ 7
90 E PT ARANSAS  2300   76 81   50/  6/  8 1019.7    2/ 7
35 NE PT MANSFLD 2300   78 81   80/  8/ 10 1018.4    2/ 7
200 E PT ISABEL  2300   77 81   50/  6/ 10 1018.4    3/ 8
$$